Information on these data can be found in provided Readme document
Contact Info: Zachary Fasnacht (zachary.fasnacht@ssaihq.com); Nickolay Krotkov (nickolay.a.krotkov@nasa.gov); Lok Lamsal (lok.lamsal@nasa.gov)

FillValue: -999.
ScaleFactor: 1e15
Units: molecules/cm^2

Date(yyyy-mm-dd),City,Country,LonCenter,LatCenter,BoundingCoordinates,Median,Q1,Q3,Mean,Baseline_Median,Baseline_Q1,Baseline_Q3,Baseline_Mean,NumGoodSamples,NumTotalSamples
2015-01-01,Patna,India,85.1376,25.5941,[84.6376 25.0941 85.6376 26.0941],2.632,1.999,3.408,3.148,2.844,2.23,3.696,3.156,109.0,548.0
2015-01-02,Patna,India,85.1376,25.5941,[84.6376 25.0941 85.6376 26.0941],2.463,2.009,3.408,3.111,2.797,2.266,3.562,3.107,115.0,542.0
2015-01-03,Patna,India,85.1376,25.5941,[84.6376 25.0941 85.6376 26.0941],2.479,2.016,3.346,3.085,2.716,2.245,3.41,2.997,122.0,537.0
2015-01-04,Patna,India,85.1376,25.5941,[84.6376 25.0941 85.6376 26.0941],2.479,2.009,3.346,3.095,2.742,2.256,3.474,3.089,117.0,545.0
2015-01-05,Patna,India,85.1376,25.5941,[84.6376 25.0941 85.6376 26.0941],2.616,2.124,3.473,3.133,2.798,2.298,3.486,3.116,128.0,527.0
2015-01-06,Patna,India,85.1376,25.5941,[84.6376 25.0941 85.6376 26.0941],2.4,2.009,4.23,3.286,2.739,2.238,3.577,3.108,105.0,536.0
2015-01-07,Patna,India,85.1376,25.5941,[84.6376 25.0941 85.6376 26.0941],2.438,1.934,3.116,2.993,2.695,2.181,3.352,3.035,129.0,525.0
2015-01-08,Patna,India,85.1376,25.5941,[84.6376 25.0941 85.6376 26.0941],2.4,1.934,2.998,2.949,2.728,2.218,3.437,3.053,124.0,553.0
2015-01-09,Patna,India,85.1376,25.5941,[84.6376 25.0941 85.6376 26.0941],2.362,1.832,2.874,2.696,2.706,2.188,3.401,2.97,105.0,534.0
2015-01-10,Patna,India,85.1376,25.5941,[84.6376 25.0941 85.6376 26.0941],2.362,1.832,2.874,2.696,2.61,2.088,3.191,2.868,105.0,504.0
2015-01-11,Patna,India,85.1376,25.5941,[84.6376 25.0941 85.6376 26.0941],2.362,1.832,2.874,2.696,2.62,2.071,3.167,2.85,105.0,504.0
2015-01-12,Patna,India,85.1376,25.5941,[84.6376 25.0941 85.6376 26.0941],2.391,1.934,2.868,2.678,2.602,2.074,3.141,2.846,120.0,492.0
2015-01-13,Patna,India,85.1376,25.5941,[84.6376 25.0941 85.6376 26.0941],2.559,2.127,2.998,2.886,2.612,2.086,3.15,2.864,107.0,502.0
2015-01-14,Patna,India,85.1376,25.5941,[84.6376 25.0941 85.6376 26.0941],2.545,2.124,2.912,2.768,2.614,2.095,3.149,2.872,136.0,484.0
2015-01-15,Patna,India,85.1376,25.5941,[84.6376 25.0941 85.6376 26.0941],2.555,1.995,3.011,2.795,2.604,2.085,3.139,2.847,127.0,502.0
2015-01-16,Patna,India,85.1376,25.5941,[84.6376 25.0941 85.6376 26.0941],2.617,2.127,2.992,2.591,2.648,2.118,3.163,2.835,121.0,494.0
2015-01-17,Patna,India,85.1376,25.5941,[84.6376 25.0941 85.6376 26.0941],2.636,2.127,3.116,2.627,2.635,2.103,3.307,2.881,145.0,510.0
2015-01-18,Patna,India,85.1376,25.5941,[84.6376 25.0941 85.6376 26.0941],2.637,2.128,3.106,2.629,2.679,2.121,3.344,2.929,147.0,506.0
2015-01-19,Patna,India,85.1376,25.5941,[84.6376 25.0941 85.6376 26.0941],2.637,2.128,3.106,2.629,2.677,2.126,3.377,2.9,147.0,503.0
2015-01-20,Patna,India,85.1376,25.5941,[84.6376 25.0941 85.6376 26.0941],2.636,2.127,2.992,2.568,2.705,2.089,3.449,2.924,136.0,512.0
2015-01-21,Patna,India,85.1376,25.5941,[84.6376 25.0941 85.6376 26.0941],2.636,1.85,2.964,2.503,2.655,2.027,3.413,2.875,146.0,493.0
2015-01-22,Patna,India,85.1376,25.5941,[84.6376 25.0941 85.6376 26.0941],2.636,2.079,3.119,2.557,2.651,2.114,3.406,2.885,122.0,505.0
2015-01-23,Patna,India,85.1376,25.5941,[84.6376 25.0941 85.6376 26.0941],2.472,1.709,2.949,2.396,2.641,2.1,3.513,2.897,141.0,493.0
2015-01-24,Patna,India,85.1376,25.5941,[84.6376 25.0941 85.6376 26.0941],2.472,1.709,2.949,2.396,2.653,2.095,3.526,2.928,141.0,521.0
2015-01-25,Patna,India,85.1376,25.5941,[84.6376 25.0941 85.6376 26.0941],2.309,1.675,2.912,2.321,2.807,2.198,3.813,3.109,161.0,541.0
2015-01-26,Patna,India,85.1376,25.5941,[84.6376 25.0941 85.6376 26.0941],2.309,1.675,2.944,2.331,2.926,2.279,3.834,3.136,188.0,552.0
2015-01-27,Patna,India,85.1376,25.5941,[84.6376 25.0941 85.6376 26.0941],2.297,1.652,2.946,2.32,2.901,2.185,3.958,3.148,173.0,552.0
2015-01-28,Patna,India,85.1376,25.5941,[84.6376 25.0941 85.6376 26.0941],2.309,1.675,3.097,2.597,2.872,2.211,3.881,3.162,195.0,538.0
2015-01-29,Patna,India,85.1376,25.5941,[84.6376 25.0941 85.6376 26.0941],2.297,1.549,3.119,2.63,2.887,2.213,3.931,3.191,166.0,548.0
2015-01-30,Patna,India,85.1376,25.5941,[84.6376 25.0941 85.6376 26.0941],1.956,1.301,2.946,2.368,2.761,2.153,3.826,3.114,195.0,532.0
2015-01-31,Patna,India,85.1376,25.5941,[84.6376 25.0941 85.6376 26.0941],1.684,1.153,2.571,2.22,2.785,2.177,3.779,3.191,169.0,547.0
2015-02-01,Patna,India,85.1376,25.5941,[84.6376 25.0941 85.6376 26.0941],1.547,1.022,2.035,1.939,2.692,2.075,3.631,3.071,161.0,535.0
2015-02-02,Patna,India,85.1376,25.5941,[84.6376 25.0941 85.6376 26.0941],1.543,1.014,1.956,1.903,2.674,2.038,3.521,3.0,186.0,548.0
2015-02-03,Patna,India,85.1376,25.5941,[84.6376 25.0941 85.6376 26.0941],1.543,1.007,1.917,1.868,2.633,2.051,3.396,2.941,195.0,544.0
2015-02-04,Patna,India,85.1376,25.5941,[84.6376 25.0941 85.6376 26.0941],1.581,1.049,2.101,2.02,2.642,2.014,3.46,2.956,219.0,539.0
2015-02-05,Patna,India,85.1376,25.5941,[84.6376 25.0941 85.6376 26.0941],1.628,1.095,2.101,2.049,2.698,2.061,3.543,3.026,209.0,549.0
2015-02-06,Patna,India,85.1376,25.5941,[84.6376 25.0941 85.6376 26.0941],1.628,1.165,2.101,2.031,2.665,2.091,3.522,3.001,230.0,529.0
2015-02-07,Patna,India,85.1376,25.5941,[84.6376 25.0941 85.6376 26.0941],1.664,1.114,2.217,2.089,2.693,2.063,3.471,2.991,211.0,541.0
2015-02-08,Patna,India,85.1376,25.5941,[84.6376 25.0941 85.6376 26.0941],1.73,1.259,2.847,2.247,2.631,2.045,3.509,2.956,243.0,529.0
2015-02-09,Patna,India,85.1376,25.5941,[84.6376 25.0941 85.6376 26.0941],1.77,1.2,3.023,2.29,2.676,2.075,3.466,2.913,223.0,557.0
2015-02-10,Patna,India,85.1376,25.5941,[84.6376 25.0941 85.6376 26.0941],1.77,1.219,2.929,2.276,2.643,2.012,3.422,2.871,214.0,537.0
2015-02-11,Patna,India,85.1376,25.5941,[84.6376 25.0941 85.6376 26.0941],1.77,1.219,2.929,2.276,2.575,1.952,3.414,2.847,214.0,508.0
2015-02-12,Patna,India,85.1376,25.5941,[84.6376 25.0941 85.6376 26.0941],1.717,1.2,2.624,2.02,2.691,2.041,3.52,2.927,192.0,509.0
2015-02-13,Patna,India,85.1376,25.5941,[84.6376 25.0941 85.6376 26.0941],1.711,1.2,2.586,1.98,2.628,1.961,3.482,2.836,216.0,496.0
2015-02-14,Patna,India,85.1376,25.5941,[84.6376 25.0941 85.6376 26.0941],1.799,1.335,2.836,2.124,2.717,2.052,3.637,2.948,187.0,504.0
2015-02-15,Patna,India,85.1376,25.5941,[84.6376 25.0941 85.6376 26.0941],1.898,1.464,2.726,2.147,2.665,2.053,3.554,2.83,216.0,488.0
2015-02-16,Patna,India,85.1376,25.5941,[84.6376 25.0941 85.6376 26.0941],2.146,1.602,2.929,2.348,2.846,2.211,3.772,3.003,191.0,507.0
2015-02-17,Patna,India,85.1376,25.5941,[84.6376 25.0941 85.6376 26.0941],2.146,1.602,2.87,2.306,2.881,2.172,3.741,2.986,186.0,500.0
2015-02-18,Patna,India,85.1376,25.5941,[84.6376 25.0941 85.6376 26.0941],2.154,1.615,2.87,2.338,2.912,2.167,3.831,3.013,183.0,515.0
2015-02-19,Patna,India,85.1376,25.5941,[84.6376 25.0941 85.6376 26.0941],2.105,1.604,2.772,2.281,2.893,2.199,3.702,3.005,169.0,512.0
2015-02-20,Patna,India,85.1376,25.5941,[84.6376 25.0941 85.6376 26.0941],2.077,1.594,2.766,2.256,2.867,2.201,3.71,2.988,196.0,504.0
2015-02-21,Patna,India,85.1376,25.5941,[84.6376 25.0941 85.6376 26.0941],2.125,1.615,2.847,2.296,2.977,2.266,3.838,3.099,175.0,515.0
2015-02-22,Patna,India,85.1376,25.5941,[84.6376 25.0941 85.6376 26.0941],2.125,1.615,2.847,2.296,2.918,2.226,3.789,3.055,175.0,496.0
2015-02-23,Patna,India,85.1376,25.5941,[84.6376 25.0941 85.6376 26.0941],2.001,1.524,2.617,2.117,2.967,2.253,3.831,3.075,143.0,508.0
2015-02-24,Patna,India,85.1376,25.5941,[84.6376 25.0941 85.6376 26.0941],2.125,1.657,2.744,2.215,2.921,2.159,3.766,3.017,174.0,497.0
2015-02-25,Patna,India,85.1376,25.5941,[84.6376 25.0941 85.6376 26.0941],2.125,1.657,2.726,2.21,2.94,2.171,3.817,3.04,156.0,529.0
2015-02-26,Patna,India,85.1376,25.5941,[84.6376 25.0941 85.6376 26.0941],2.204,1.706,2.771,2.265,3.032,2.18,3.799,3.055,176.0,549.0
2015-02-27,Patna,India,85.1376,25.5941,[84.6376 25.0941 85.6376 26.0941],2.181,1.657,2.771,2.214,2.922,2.154,3.651,2.934,203.0,557.0
2015-02-28,Patna,India,85.1376,25.5941,[84.6376 25.0941 85.6376 26.0941],2.249,1.743,2.87,2.278,2.941,2.187,3.735,2.984,179.0,558.0
2015-03-01,Patna,India,85.1376,25.5941,[84.6376 25.0941 85.6376 26.0941],2.204,1.666,2.87,2.236,2.933,2.145,3.787,2.995,201.0,544.0
2015-03-02,Patna,India,85.1376,25.5941,[84.6376 25.0941 85.6376 26.0941],2.246,1.547,2.913,2.229,3.012,2.177,3.872,3.071,172.0,553.0
2015-03-03,Patna,India,85.1376,25.5941,[84.6376 25.0941 85.6376 26.0941],2.095,1.382,2.813,2.119,2.864,2.064,3.781,2.963,202.0,535.0
2015-03-04,Patna,India,85.1376,25.5941,[84.6376 25.0941 85.6376 26.0941],2.151,1.382,2.923,2.153,2.895,2.112,3.806,3.009,173.0,549.0
2015-03-05,Patna,India,85.1376,25.5941,[84.6376 25.0941 85.6376 26.0941],2.095,1.37,2.744,2.092,2.829,2.092,3.715,2.947,197.0,538.0
2015-03-06,Patna,India,85.1376,25.5941,[84.6376 25.0941 85.6376 26.0941],2.037,1.382,2.732,2.047,2.802,2.058,3.668,2.913,219.0,550.0
2015-03-07,Patna,India,85.1376,25.5941,[84.6376 25.0941 85.6376 26.0941],2.095,1.389,2.732,2.052,2.806,2.036,3.665,2.883,197.0,549.0
2015-03-08,Patna,India,85.1376,25.5941,[84.6376 25.0941 85.6376 26.0941],2.095,1.389,2.732,2.052,2.749,1.973,3.562,2.813,197.0,542.0
2015-03-09,Patna,India,85.1376,25.5941,[84.6376 25.0941 85.6376 26.0941],2.095,1.389,2.732,2.052,2.817,2.071,3.64,2.876,197.0,552.0
2015-03-10,Patna,India,85.1376,25.5941,[84.6376 25.0941 85.6376 26.0941],2.096,1.382,2.771,2.063,2.859,2.111,3.681,2.903,219.0,533.0
2015-03-11,Patna,India,85.1376,25.5941,[84.6376 25.0941 85.6376 26.0941],1.885,1.232,2.659,1.935,2.896,2.095,3.786,2.95,188.0,544.0
2015-03-12,Patna,India,85.1376,25.5941,[84.6376 25.0941 85.6376 26.0941],1.885,1.255,2.659,1.993,2.852,2.045,3.72,2.895,221.0,533.0
2015-03-13,Patna,India,85.1376,25.5941,[84.6376 25.0941 85.6376 26.0941],1.832,1.232,2.582,1.917,3.042,2.126,3.894,3.041,201.0,561.0
2015-03-14,Patna,India,85.1376,25.5941,[84.6376 25.0941 85.6376 26.0941],1.885,1.276,2.633,1.994,3.089,2.165,4.055,3.123,194.0,544.0
2015-03-15,Patna,India,85.1376,25.5941,[84.6376 25.0941 85.6376 26.0941],1.885,1.276,2.633,1.994,3.298,2.333,4.151,3.279,194.0,514.0
2015-03-16,Patna,India,85.1376,25.5941,[84.6376 25.0941 85.6376 26.0941],1.907,1.331,2.649,2.046,3.194,2.208,4.13,3.219,199.0,516.0
2015-03-17,Patna,India,85.1376,25.5941,[84.6376 25.0941 85.6376 26.0941],1.972,1.363,2.827,2.134,3.187,2.184,4.145,3.205,223.0,503.0
2015-03-18,Patna,India,85.1376,25.5941,[84.6376 25.0941 85.6376 26.0941],2.098,1.594,2.902,2.239,3.291,2.311,4.204,3.298,193.0,512.0
2015-03-19,Patna,India,85.1376,25.5941,[84.6376 25.0941 85.6376 26.0941],2.355,1.637,3.069,2.415,3.393,2.475,4.267,3.407,222.0,496.0
2015-03-20,Patna,India,85.1376,25.5941,[84.6376 25.0941 85.6376 26.0941],2.531,1.741,3.172,2.572,3.528,2.631,4.38,3.552,192.0,512.0
2015-03-21,Patna,India,85.1376,25.5941,[84.6376 25.0941 85.6376 26.0941],2.382,1.731,3.13,2.5,3.485,2.603,4.399,3.524,190.0,502.0
2015-03-22,Patna,India,85.1376,25.5941,[84.6376 25.0941 85.6376 26.0941],2.382,1.693,3.161,2.504,3.604,2.642,4.495,3.615,218.0,515.0
2015-03-23,Patna,India,85.1376,25.5941,[84.6376 25.0941 85.6376 26.0941],2.382,1.693,3.161,2.504,3.649,2.729,4.509,3.651,218.0,512.0
2015-03-24,Patna,India,85.1376,25.5941,[84.6376 25.0941 85.6376 26.0941],2.382,1.693,3.172,2.495,3.658,2.693,4.485,3.656,246.0,503.0
2015-03-25,Patna,India,85.1376,25.5941,[84.6376 25.0941 85.6376 26.0941],2.382,1.741,3.245,2.539,3.652,2.754,4.497,3.683,244.0,512.0
2015-03-26,Patna,India,85.1376,25.5941,[84.6376 25.0941 85.6376 26.0941],2.382,1.753,3.172,2.515,3.611,2.752,4.409,3.662,266.0,493.0
2015-03-27,Patna,India,85.1376,25.5941,[84.6376 25.0941 85.6376 26.0941],2.511,1.773,3.284,2.597,3.701,2.819,4.521,3.732,233.0,503.0
2015-03-28,Patna,India,85.1376,25.5941,[84.6376 25.0941 85.6376 26.0941],2.532,1.861,3.432,2.722,3.64,2.776,4.479,3.699,245.0,493.0
2015-03-29,Patna,India,85.1376,25.5941,[84.6376 25.0941 85.6376 26.0941],2.574,1.802,3.442,2.742,3.608,2.728,4.444,3.667,232.0,522.0
2015-03-30,Patna,India,85.1376,25.5941,[84.6376 25.0941 85.6376 26.0941],2.511,1.767,3.366,2.668,3.47,2.669,4.376,3.584,252.0,542.0
2015-03-31,Patna,India,85.1376,25.5941,[84.6376 25.0941 85.6376 26.0941],2.511,1.773,3.442,2.727,3.577,2.762,4.445,3.685,249.0,550.0
2015-04-01,Patna,India,85.1376,25.5941,[84.6376 25.0941 85.6376 26.0941],2.457,1.773,3.303,2.672,3.61,2.824,4.441,3.709,252.0,549.0
2015-04-02,Patna,India,85.1376,25.5941,[84.6376 25.0941 85.6376 26.0941],2.443,1.767,3.296,2.647,3.562,2.822,4.429,3.676,277.0,538.0
2015-04-03,Patna,India,85.1376,25.5941,[84.6376 25.0941 85.6376 26.0941],2.316,1.652,3.104,2.513,3.557,2.806,4.346,3.644,248.0,547.0
2015-04-04,Patna,India,85.1376,25.5941,[84.6376 25.0941 85.6376 26.0941],2.216,1.607,3.071,2.452,3.466,2.714,4.271,3.547,277.0,531.0
2015-04-05,Patna,India,85.1376,25.5941,[84.6376 25.0941 85.6376 26.0941],2.291,1.645,3.18,2.528,3.528,2.778,4.307,3.605,247.0,550.0
2015-04-06,Patna,India,85.1376,25.5941,[84.6376 25.0941 85.6376 26.0941],2.485,1.722,3.371,2.657,3.521,2.771,4.318,3.592,237.0,542.0
2015-04-07,Patna,India,85.1376,25.5941,[84.6376 25.0941 85.6376 26.0941],2.492,1.722,3.421,2.669,3.537,2.78,4.346,3.604,269.0,556.0
2015-04-08,Patna,India,85.1376,25.5941,[84.6376 25.0941 85.6376 26.0941],2.511,1.722,3.431,2.698,3.498,2.766,4.328,3.595,244.0,555.0
2015-04-09,Patna,India,85.1376,25.5941,[84.6376 25.0941 85.6376 26.0941],2.511,1.787,3.303,2.691,3.51,2.786,4.32,3.578,252.0,547.0
2015-04-10,Patna,India,85.1376,25.5941,[84.6376 25.0941 85.6376 26.0941],2.66,1.787,3.519,2.792,3.577,2.824,4.399,3.635,240.0,556.0
2015-04-11,Patna,India,85.1376,25.5941,[84.6376 25.0941 85.6376 26.0941],2.871,1.921,3.795,2.963,3.577,2.785,4.378,3.613,263.0,535.0
2015-04-12,Patna,India,85.1376,25.5941,[84.6376 25.0941 85.6376 26.0941],2.726,1.825,3.55,2.85,3.572,2.803,4.316,3.599,251.0,546.0
2015-04-13,Patna,India,85.1376,25.5941,[84.6376 25.0941 85.6376 26.0941],3.06,2.076,3.999,3.098,3.648,2.838,4.424,3.646,278.0,536.0
2015-04-14,Patna,India,85.1376,25.5941,[84.6376 25.0941 85.6376 26.0941],3.187,2.207,4.047,3.191,3.672,2.872,4.414,3.668,281.0,563.0
2015-04-15,Patna,India,85.1376,25.5941,[84.6376 25.0941 85.6376 26.0941],3.299,2.29,4.133,3.279,3.645,2.885,4.371,3.656,275.0,544.0
2015-04-16,Patna,India,85.1376,25.5941,[84.6376 25.0941 85.6376 26.0941],3.424,2.37,4.23,3.339,3.706,2.887,4.411,3.674,248.0,515.0
2015-04-17,Patna,India,85.1376,25.5941,[84.6376 25.0941 85.6376 26.0941],3.509,2.734,4.281,3.453,3.699,2.968,4.415,3.696,239.0,514.0
2015-04-18,Patna,India,85.1376,25.5941,[84.6376 25.0941 85.6376 26.0941],3.516,2.734,4.281,3.454,3.782,3.002,4.569,3.776,242.0,500.0
2015-04-19,Patna,India,85.1376,25.5941,[84.6376 25.0941 85.6376 26.0941],3.773,2.977,4.42,3.725,3.852,3.088,4.612,3.848,213.0,508.0
2015-04-20,Patna,India,85.1376,25.5941,[84.6376 25.0941 85.6376 26.0941],3.519,2.852,4.314,3.554,3.816,3.055,4.598,3.814,243.0,491.0
2015-04-21,Patna,India,85.1376,25.5941,[84.6376 25.0941 85.6376 26.0941],3.667,2.806,4.38,3.597,3.857,3.057,4.623,3.837,220.0,506.0
2015-04-22,Patna,India,85.1376,25.5941,[84.6376 25.0941 85.6376 26.0941],3.36,2.551,4.325,3.411,3.767,2.956,4.637,3.784,218.0,494.0
2015-04-23,Patna,India,85.1376,25.5941,[84.6376 25.0941 85.6376 26.0941],3.338,2.54,4.281,3.363,3.791,2.964,4.661,3.795,248.0,509.0
2015-04-24,Patna,India,85.1376,25.5941,[84.6376 25.0941 85.6376 26.0941],3.376,2.543,4.325,3.393,3.863,3.011,4.704,3.842,233.0,505.0
2015-04-25,Patna,India,85.1376,25.5941,[84.6376 25.0941 85.6376 26.0941],3.291,2.334,4.231,3.274,3.857,3.022,4.68,3.836,249.0,499.0
2015-04-26,Patna,India,85.1376,25.5941,[84.6376 25.0941 85.6376 26.0941],3.075,2.282,3.985,3.129,3.907,3.113,4.695,3.898,249.0,509.0
2015-04-27,Patna,India,85.1376,25.5941,[84.6376 25.0941 85.6376 26.0941],3.068,2.287,3.943,3.113,3.853,3.081,4.679,3.883,271.0,489.0
2015-04-28,Patna,India,85.1376,25.5941,[84.6376 25.0941 85.6376 26.0941],2.692,2.104,3.586,2.883,3.814,3.091,4.653,3.879,237.0,497.0
2015-04-29,Patna,India,85.1376,25.5941,[84.6376 25.0941 85.6376 26.0941],2.737,2.15,3.454,2.851,3.824,3.107,4.62,3.875,245.0,490.0
2015-04-30,Patna,India,85.1376,25.5941,[84.6376 25.0941 85.6376 26.0941],2.652,2.067,3.303,2.719,3.796,3.078,4.587,3.867,244.0,519.0
2015-05-01,Patna,India,85.1376,25.5941,[84.6376 25.0941 85.6376 26.0941],2.647,2.067,3.253,2.684,3.808,3.085,4.603,3.867,264.0,539.0
2015-05-02,Patna,India,85.1376,25.5941,[84.6376 25.0941 85.6376 26.0941],2.621,2.05,3.145,2.635,3.818,3.102,4.621,3.895,277.0,546.0
2015-05-03,Patna,India,85.1376,25.5941,[84.6376 25.0941 85.6376 26.0941],2.629,2.05,3.145,2.634,3.831,3.135,4.557,3.905,280.0,551.0
2015-05-04,Patna,India,85.1376,25.5941,[84.6376 25.0941 85.6376 26.0941],2.652,2.104,3.201,2.688,3.853,3.196,4.585,3.924,300.0,537.0
2015-05-05,Patna,India,85.1376,25.5941,[84.6376 25.0941 85.6376 26.0941],2.647,2.136,3.201,2.695,3.899,3.216,4.589,3.954,270.0,547.0
2015-05-06,Patna,India,85.1376,25.5941,[84.6376 25.0941 85.6376 26.0941],2.689,2.15,3.368,2.766,3.862,3.226,4.554,3.934,299.0,530.0
2015-05-07,Patna,India,85.1376,25.5941,[84.6376 25.0941 85.6376 26.0941],2.776,2.243,3.376,2.8,3.977,3.314,4.664,4.027,269.0,548.0
2015-05-08,Patna,India,85.1376,25.5941,[84.6376 25.0941 85.6376 26.0941],2.798,2.279,3.347,2.817,3.997,3.331,4.701,4.06,239.0,536.0
2015-05-09,Patna,India,85.1376,25.5941,[84.6376 25.0941 85.6376 26.0941],2.824,2.276,3.384,2.837,3.984,3.289,4.736,4.053,239.0,554.0
2015-05-10,Patna,India,85.1376,25.5941,[84.6376 25.0941 85.6376 26.0941],2.869,2.357,3.409,2.953,3.94,3.266,4.731,4.052,225.0,549.0
2015-05-11,Patna,India,85.1376,25.5941,[84.6376 25.0941 85.6376 26.0941],2.92,2.412,3.496,3.02,3.982,3.278,4.761,4.067,227.0,545.0
2015-05-12,Patna,India,85.1376,25.5941,[84.6376 25.0941 85.6376 26.0941],2.914,2.383,3.496,3.016,4.04,3.334,4.82,4.117,226.0,554.0
2015-05-13,Patna,India,85.1376,25.5941,[84.6376 25.0941 85.6376 26.0941],2.893,2.395,3.496,3.003,4.036,3.309,4.875,4.116,246.0,535.0
2015-05-14,Patna,India,85.1376,25.5941,[84.6376 25.0941 85.6376 26.0941],2.947,2.422,3.598,3.094,4.129,3.376,4.989,4.205,215.0,541.0
2015-05-15,Patna,India,85.1376,25.5941,[84.6376 25.0941 85.6376 26.0941],3.158,2.595,3.785,3.227,4.14,3.396,5.004,4.204,229.0,530.0
2015-05-16,Patna,India,85.1376,25.5941,[84.6376 25.0941 85.6376 26.0941],3.34,2.713,3.848,3.334,4.188,3.414,5.049,4.237,228.0,560.0
2015-05-17,Patna,India,85.1376,25.5941,[84.6376 25.0941 85.6376 26.0941],3.307,2.724,3.794,3.331,4.091,3.308,4.961,4.152,219.0,543.0
2015-05-18,Patna,India,85.1376,25.5941,[84.6376 25.0941 85.6376 26.0941],3.307,2.724,3.826,3.337,4.051,3.286,4.846,4.102,213.0,510.0
2015-05-19,Patna,India,85.1376,25.5941,[84.6376 25.0941 85.6376 26.0941],3.388,2.846,3.893,3.376,4.079,3.323,4.887,4.127,218.0,512.0
2015-05-20,Patna,India,85.1376,25.5941,[84.6376 25.0941 85.6376 26.0941],3.349,2.724,3.848,3.35,4.097,3.316,4.869,4.111,240.0,494.0
2015-05-21,Patna,India,85.1376,25.5941,[84.6376 25.0941 85.6376 26.0941],3.307,2.724,3.897,3.359,4.124,3.299,4.906,4.143,211.0,503.0
2015-05-22,Patna,India,85.1376,25.5941,[84.6376 25.0941 85.6376 26.0941],3.349,2.832,3.905,3.392,4.09,3.261,4.927,4.102,241.0,486.0
2015-05-23,Patna,India,85.1376,25.5941,[84.6376 25.0941 85.6376 26.0941],3.349,2.809,3.916,3.392,4.021,3.246,4.869,4.087,238.0,503.0
2015-05-24,Patna,India,85.1376,25.5941,[84.6376 25.0941 85.6376 26.0941],3.494,2.901,3.969,3.468,4.046,3.265,4.938,4.106,256.0,492.0
2015-05-25,Patna,India,85.1376,25.5941,[84.6376 25.0941 85.6376 26.0941],3.454,2.89,3.959,3.415,4.012,3.228,4.933,4.087,268.0,508.0
2015-05-26,Patna,India,85.1376,25.5941,[84.6376 25.0941 85.6376 26.0941],3.417,2.889,3.964,3.408,3.916,3.191,4.823,4.031,256.0,503.0
2015-05-27,Patna,India,85.1376,25.5941,[84.6376 25.0941 85.6376 26.0941],3.417,2.889,3.959,3.419,3.976,3.176,4.822,4.024,262.0,500.0
2015-05-28,Patna,India,85.1376,25.5941,[84.6376 25.0941 85.6376 26.0941],3.454,2.901,3.964,3.439,3.961,3.148,4.785,4.008,261.0,511.0
2015-05-29,Patna,India,85.1376,25.5941,[84.6376 25.0941 85.6376 26.0941],3.379,2.846,3.916,3.382,3.892,3.115,4.711,3.937,277.0,494.0
2015-05-30,Patna,India,85.1376,25.5941,[84.6376 25.0941 85.6376 26.0941],3.308,2.677,3.916,3.325,3.817,2.995,4.699,3.89,246.0,504.0
2015-05-31,Patna,India,85.1376,25.5941,[84.6376 25.0941 85.6376 26.0941],3.58,2.949,4.311,3.597,3.821,3.033,4.653,3.889,258.0,492.0
2015-06-01,Patna,India,85.1376,25.5941,[84.6376 25.0941 85.6376 26.0941],3.676,2.967,4.446,3.655,3.841,3.01,4.645,3.88,258.0,521.0
2015-06-02,Patna,India,85.1376,25.5941,[84.6376 25.0941 85.6376 26.0941],3.731,3.02,4.483,3.707,3.871,3.05,4.68,3.88,278.0,541.0
2015-06-03,Patna,India,85.1376,25.5941,[84.6376 25.0941 85.6376 26.0941],3.775,3.02,4.498,3.748,3.818,2.971,4.636,3.845,279.0,550.0
2015-06-04,Patna,India,85.1376,25.5941,[84.6376 25.0941 85.6376 26.0941],3.791,3.097,4.504,3.804,3.807,2.982,4.625,3.837,284.0,556.0
2015-06-05,Patna,India,85.1376,25.5941,[84.6376 25.0941 85.6376 26.0941],3.775,2.957,4.497,3.716,3.721,2.941,4.557,3.751,308.0,541.0
2015-06-06,Patna,India,85.1376,25.5941,[84.6376 25.0941 85.6376 26.0941],3.791,2.92,4.512,3.736,3.722,2.909,4.507,3.751,278.0,550.0
2015-06-07,Patna,India,85.1376,25.5941,[84.6376 25.0941 85.6376 26.0941],3.775,2.949,4.497,3.708,3.701,2.923,4.455,3.733,296.0,534.0
2015-06-08,Patna,India,85.1376,25.5941,[84.6376 25.0941 85.6376 26.0941],3.714,2.681,4.632,3.691,3.679,2.876,4.44,3.714,265.0,550.0
2015-06-09,Patna,India,85.1376,25.5941,[84.6376 25.0941 85.6376 26.0941],3.574,2.6,4.446,3.552,3.646,2.863,4.405,3.707,261.0,540.0
2015-06-10,Patna,India,85.1376,25.5941,[84.6376 25.0941 85.6376 26.0941],3.565,2.598,4.446,3.532,3.659,2.839,4.428,3.699,279.0,555.0
2015-06-11,Patna,India,85.1376,25.5941,[84.6376 25.0941 85.6376 26.0941],3.62,2.598,4.497,3.556,3.6,2.81,4.377,3.661,258.0,550.0
2015-06-12,Patna,India,85.1376,25.5941,[84.6376 25.0941 85.6376 26.0941],3.663,2.628,4.56,3.622,3.615,2.785,4.418,3.668,261.0,542.0
2015-06-13,Patna,India,85.1376,25.5941,[84.6376 25.0941 85.6376 26.0941],3.731,2.75,4.602,3.659,3.623,2.803,4.425,3.661,255.0,552.0
2015-06-14,Patna,India,85.1376,25.5941,[84.6376 25.0941 85.6376 26.0941],3.669,2.602,4.576,3.594,3.642,2.815,4.47,3.694,267.0,534.0
2015-06-15,Patna,India,85.1376,25.5941,[84.6376 25.0941 85.6376 26.0941],3.355,2.431,4.078,3.3,3.616,2.799,4.358,3.641,236.0,544.0
2015-06-16,Patna,India,85.1376,25.5941,[84.6376 25.0941 85.6376 26.0941],3.355,2.43,4.078,3.304,3.633,2.871,4.405,3.689,216.0,534.0
2015-06-17,Patna,India,85.1376,25.5941,[84.6376 25.0941 85.6376 26.0941],2.987,2.253,3.884,3.14,3.461,2.781,4.307,3.597,214.0,562.0
2015-06-18,Patna,India,85.1376,25.5941,[84.6376 25.0941 85.6376 26.0941],2.889,2.034,3.742,2.967,3.404,2.73,4.254,3.542,191.0,544.0
2015-06-19,Patna,India,85.1376,25.5941,[84.6376 25.0941 85.6376 26.0941],2.75,2.001,3.643,2.851,3.357,2.654,4.207,3.474,164.0,512.0
2015-06-20,Patna,India,85.1376,25.5941,[84.6376 25.0941 85.6376 26.0941],2.925,1.993,3.714,2.907,3.361,2.603,4.208,3.446,140.0,512.0
2015-06-21,Patna,India,85.1376,25.5941,[84.6376 25.0941 85.6376 26.0941],2.925,1.993,3.714,2.907,3.314,2.544,4.152,3.386,140.0,497.0
2015-06-22,Patna,India,85.1376,25.5941,[84.6376 25.0941 85.6376 26.0941],2.697,1.854,3.47,2.801,3.161,2.46,4.073,3.304,122.0,505.0
2015-06-23,Patna,India,85.1376,25.5941,[84.6376 25.0941 85.6376 26.0941],2.386,1.656,3.213,2.529,2.979,2.307,3.795,3.059,146.0,488.0
2015-06-24,Patna,India,85.1376,25.5941,[84.6376 25.0941 85.6376 26.0941],2.304,1.48,3.123,2.507,2.898,2.325,3.679,3.018,126.0,505.0
2015-06-25,Patna,India,85.1376,25.5941,[84.6376 25.0941 85.6376 26.0941],1.853,1.421,3.002,2.331,2.798,2.246,3.586,2.95,102.0,494.0
2015-06-26,Patna,India,85.1376,25.5941,[84.6376 25.0941 85.6376 26.0941],1.898,1.433,2.859,2.294,2.749,2.18,3.486,2.888,127.0,506.0
2015-06-27,Patna,India,85.1376,25.5941,[84.6376 25.0941 85.6376 26.0941],1.853,1.421,2.488,2.014,2.703,2.099,3.411,2.781,119.0,504.0